Location: Unspecified
(48.2082°N, 0.0000°E)
Time: 16:57:50
(UTC+00:00)

Vanguard 1 - Pass Details

Date: 26 June 2019
Orbit: 655 x 3829 km, 34.2° (Epoch: 16 August)

Event Time Altitude Azimuth Distance (km) Brightness Sun altitude
Rises 02:22:13 0° 239° (WSW) 7,840 - -11.9°
Exits shadow 02:26:45 - 236° (SW) 6,906 13.8 -11.5°
Reaches altitude 10° 02:28:19 10° 234° (SW) 6,576 13.7 -11.3°
Maximum altitude 02:46:01 43° 173° (S) 3,301 12.4 -9.6°
Drops below altitude 10° 02:56:44 10° 107° (ESE) 4,078 13.5 -8.5°
Sets 02:59:31 0° 100° (E) 4,727 14.0 -8.2°
